WMT8XX LHBP-LIMC

Flight info

Callsign WMT8XX
Flight time N/A
Altitude 32000
Route GILEP DCT ZOLKU DCT SUNIS DCT ABTAN DCT DETSA/N0448F330 DCT BAKOR DCT NAXAV DCT RENTA DCT ATPED DCT LUSIL/N0383F230 DCT EVRIP
Aircraft A21N/M-SDE1E2E3FGIJ1J4RWXY/LB1

Departure

Time N/A
Airport Budapest Liszt Ferenc International Airport (LHBP)

Arrival

Time 2026-02-20 11:26
Airport Milan Malpensa International Airport (LIMC)
Time Latitude Longitude Altitude Speed Heading
2026-02-20 10:59 46.11424 10.31801 28583 ft 411 kts 252°
2026-02-20 10:59 46.10133 10.28150 28132 ft 407 kts 251°
2026-02-20 10:59 46.08859 10.24544 27684 ft 401 kts 251°
2026-02-20 11:00 46.07597 10.20983 27245 ft 397 kts 251°
2026-02-20 11:00 46.06353 10.17503 26818 ft 394 kts 250°
2026-02-20 11:00 46.05104 10.14014 26384 ft 390 kts 250°
2026-02-20 11:00 46.03895 10.10549 25944 ft 385 kts 251°
2026-02-20 11:01 46.02739 10.07085 25515 ft 382 kts 250°
2026-02-20 11:01 46.01591 10.03657 25106 ft 379 kts 250°
2026-02-20 11:01 46.00444 10.00258 24698 ft 376 kts 249°
2026-02-20 11:01 45.99309 9.96879 24250 ft 374 kts 249°
2026-02-20 11:02 45.98181 9.93521 23804 ft 372 kts 249°
2026-02-20 11:02 45.97058 9.90181 23326 ft 370 kts 247°
2026-02-20 11:02 45.95752 9.86963 22442 ft 377 kts 239°
2026-02-20 11:02 45.94292 9.83823 21732 ft 377 kts 238°
2026-02-20 11:03 45.92842 9.80755 21098 ft 377 kts 238°
2026-02-20 11:03 45.91380 9.77650 20558 ft 373 kts 238°
2026-02-20 11:03 45.89931 9.74563 19960 ft 372 kts 238°
2026-02-20 11:03 45.88493 9.71486 19367 ft 371 kts 238°
2026-02-20 11:04 45.87060 9.68425 18817 ft 368 kts 238°
2026-02-20 11:04 45.85634 9.65385 18296 ft 366 kts 238°
2026-02-20 11:04 45.84219 9.62372 17784 ft 362 kts 238°
2026-02-20 11:04 45.82840 9.59435 17305 ft 357 kts 238°
2026-02-20 11:05 45.81461 9.56511 16877 ft 351 kts 238°
2026-02-20 11:05 45.80105 9.53636 16465 ft 346 kts 238°
2026-02-20 11:05 45.78769 9.50793 16078 ft 341 kts 238°
2026-02-20 11:05 45.77453 9.48006 15679 ft 335 kts 238°
2026-02-20 11:06 45.76150 9.45253 15196 ft 333 kts 238°
2026-02-20 11:06 45.74864 9.42529 14830 ft 327 kts 238°
2026-02-20 11:06 45.73597 9.39845 14392 ft 324 kts 238°
2026-02-20 11:06 45.72343 9.37189 13916 ft 321 kts 238°
2026-02-20 11:07 45.71095 9.34539 13433 ft 320 kts 237°
2026-02-20 11:07 45.69857 9.31912 12910 ft 318 kts 238°
2026-02-20 11:07 45.68626 9.29285 12395 ft 317 kts 238°
2026-02-20 11:07 45.67401 9.26704 11927 ft 317 kts 238°
2026-02-20 11:08 45.66159 9.24104 11498 ft 317 kts 238°
2026-02-20 11:08 45.64924 9.21497 11079 ft 318 kts 239°
2026-02-20 11:08 45.63688 9.18889 10668 ft 315 kts 239°
2026-02-20 11:08 45.62457 9.16299 10264 ft 315 kts 239°
2026-02-20 11:09 45.61216 9.13705 9861 ft 316 kts 239°
2026-02-20 11:09 45.59973 9.11115 9470 ft 314 kts 239°
2026-02-20 11:09 45.58747 9.08574 9125 ft 308 kts 239°
2026-02-20 11:09 45.57530 9.06088 8825 ft 304 kts 239°
2026-02-20 11:10 45.56337 9.03681 8496 ft 298 kts 239°
2026-02-20 11:10 45.55141 9.01280 8151 ft 295 kts 239°
2026-02-20 11:10 45.53957 8.98917 7788 ft 291 kts 238°
2026-02-20 11:10 45.52517 8.96875 7434 ft 294 kts 221°
2026-02-20 11:11 45.50875 8.95170 7090 ft 291 kts 219°
2026-02-20 11:11 45.49231 8.93528 6733 ft 286 kts 218°
2026-02-20 11:11 45.47612 8.91920 6347 ft 281 kts 218°
2026-02-20 11:11 45.46053 8.90286 5961 ft 274 kts 228°
2026-02-20 11:12 45.45017 8.88124 5548 ft 259 kts 254°
2026-02-20 11:12 45.44557 8.85750 5172 ft 248 kts 262°
2026-02-20 11:12 45.44257 8.83365 4785 ft 239 kts 273°
2026-02-20 11:12 45.44585 8.81151 4375 ft 224 kts 302°
2026-02-20 11:13 45.45530 8.79473 3983 ft 214 kts 320°
2026-02-20 11:13 45.46659 8.78118 3608 ft 211 kts 323°
2026-02-20 11:13 45.47831 8.76907 3317 ft 204 kts 333°
2026-02-20 11:13 45.49109 8.76158 3148 ft 192 kts 344°
2026-02-20 11:14 45.50377 8.75770 3013 ft 184 kts 351°
2026-02-20 11:14 45.51630 8.75436 2783 ft 182 kts 349°
2026-02-20 11:14 45.52881 8.75091 2526 ft 185 kts 349°
2026-02-20 11:14 45.54133 8.74748 2289 ft 182 kts 348°
2026-02-20 11:15 45.55386 8.74403 2016 ft 184 kts 348°
2026-02-20 11:15 45.56659 8.74051 1743 ft 195 kts 348°
2026-02-20 11:15 45.57956 8.73693 1428 ft 187 kts 348°
2026-02-20 11:15 45.59266 8.73333 1863 ft 186 kts 348°
2026-02-20 11:16 45.60605 8.72952 2347 ft 207 kts 347°
2026-02-20 11:16 45.61935 8.72026 2878 ft 220 kts 321°
2026-02-20 11:16 45.62816 8.70246 2916 ft 225 kts 291°
2026-02-20 11:16 45.62953 8.68023 2876 ft 229 kts 261°
2026-02-20 11:17 45.62284 8.65953 2788 ft 233 kts 231°
2026-02-20 11:17 45.61000 8.64635 2723 ft 233 kts 201°
2026-02-20 11:17 45.59391 8.64219 2650 ft 239 kts 185°
2026-02-20 11:17 45.57700 8.64070 2528 ft 249 kts 183°
2026-02-20 11:18 45.55951 8.63916 2494 ft 253 kts 182°
2026-02-20 11:18 45.54180 8.63714 2498 ft 256 kts 184°
2026-02-20 11:18 45.52406 8.63674 2498 ft 254 kts 175°
2026-02-20 11:18 45.50652 8.63875 2519 ft 254 kts 173°
2026-02-20 11:19 45.48893 8.64105 2529 ft 253 kts 174°
2026-02-20 11:19 45.47164 8.64359 2530 ft 253 kts 173°
2026-02-20 11:19 45.45410 8.64624 2538 ft 254 kts 173°
2026-02-20 11:19 45.43636 8.64906 2521 ft 257 kts 171°
2026-02-20 11:20 45.42006 8.65822 2490 ft 250 kts 143°
2026-02-20 11:20 45.40952 8.67562 2442 ft 218 kts 111°
2026-02-20 11:20 45.40742 8.69493 2444 ft 188 kts 76°
2026-02-20 11:20 45.41311 8.71123 2522 ft 184 kts 46°
2026-02-20 11:21 45.42356 8.72111 2539 ft 181 kts 24°
2026-02-20 11:21 45.43493 8.72871 2541 ft 180 kts 23°
2026-02-20 11:21 45.44633 8.73631 2541 ft 181 kts 23°
2026-02-20 11:21 45.45745 8.74371 2569 ft 177 kts 23°
2026-02-20 11:22 45.46867 8.75122 2559 ft 178 kts 23°
2026-02-20 11:22 45.48008 8.75828 2537 ft 179 kts 14°
2026-02-20 11:22 45.49221 8.75983 2500 ft 171 kts 356°
2026-02-20 11:22 45.50347 8.75788 2504 ft 156 kts 350°
2026-02-20 11:23 45.51370 8.75508 2468 ft 146 kts 349°
2026-02-20 11:23 45.52367 8.75235 2492 ft 146 kts 349°
2026-02-20 11:23 45.53361 8.74962 2377 ft 145 kts 349°
2026-02-20 11:23 45.54352 8.74688 2189 ft 145 kts 349°
2026-02-20 11:24 45.55350 8.74414 1992 ft 146 kts 349°
2026-02-20 11:24 45.56332 8.74158 1798 ft 145 kts 348°
2026-02-20 11:24 45.57321 8.73862 1558 ft 145 kts 347°
2026-02-20 11:24 45.58315 8.73590 1396 ft 146 kts 349°
2026-02-20 11:25 45.59314 8.73337 1185 ft 145 kts 347°
2026-02-20 11:25 45.60306 8.73040 1009 ft 145 kts 347°
2026-02-20 11:25 45.61295 8.72776 814 ft 144 kts 347°
2026-02-20 11:25 45.62260 8.72499 751 ft 133 kts 348°
2026-02-20 11:26 45.62993 8.72288 751 ft 78 kts 351°
2026-02-20 11:26 45.63352 8.72204 750 ft 43 kts 348°
2026-02-20 11:26 45.63645 8.72123 748 ft 42 kts 349°
2026-02-20 11:26 45.63849 8.72064 749 ft 14 kts 344°
2026-02-20 11:27 45.63906 8.71953 752 ft 16 kts 271°
2026-02-20 11:27 45.63876 8.71840 753 ft 13 kts 221°
2026-02-20 11:27 45.63788 8.71826 754 ft 14 kts 168°
2026-02-20 11:27 45.63689 8.71855 753 ft 15 kts 169°
2026-02-20 11:28 45.63577 8.71885 757 ft 17 kts 169°
2026-02-20 11:28 45.63456 8.71917 757 ft 19 kts 169°
2026-02-20 11:28 45.63323 8.71954 753 ft 20 kts 168°
2026-02-20 11:28 45.63186 8.71994 753 ft 20 kts 169°
2026-02-20 11:29 45.63084 8.72022 754 ft 16 kts 169°
2026-02-20 11:29 45.63002 8.72019 756 ft 10 kts 236°
2026-02-20 11:29 45.62981 8.71914 754 ft 12 kts 261°
2026-02-20 11:29 45.62969 8.71785 756 ft 14 kts 262°
2026-02-20 11:30 45.62951 8.71646 754 ft 13 kts 259°
2026-02-20 11:30 45.62939 8.71556 758 ft 8 kts 259°
2026-02-20 11:30 45.62932 8.71521 754 ft 4 kts 239°
2026-02-20 11:30 45.62902 8.71521 756 ft 6 kts 166°
2026-02-20 11:31 45.62868 8.71530 753 ft 0 kts 169°
2026-02-20 11:31 45.62860 8.71532 733 ft 2 kts 169°
2026-02-20 11:31 45.62854 8.71534 758 ft 0 kts 169°